Weather History for Rome, OR

Change the Weather History Date:

Monday, January 20, 2014

  Actual Average Record
Temperature  
Mean Temperature 31 °F 30 °F  
Max Temperature 48 °F 39 °F 57 °F (1953)
Min Temperature 13 °F 20 °F -8 °F (1984)
Degree Days  
Heating Degree Days 34 35  
Month to date heating degree days 599 720  
Since 1 July heating degree days 3308 3467  
Cooling Degree Days 0 0  
Month to date cooling degree days 0 0  
Year to date cooling degree days 0 0  
Moisture  
Dew Point 18 °F    
Average Humidity 63    
Maximum Humidity 92    
Minimum Humidity 34    
Precipitation  
Precipitation 0.00 in 0.02 in 0.51 in (2012)
Month to date precipitation 0.06 0.44  
Year to date precipitation 0.06 0.44  
Sea Level Pressure  
Sea Level Pressure 30.46 in    
Wind  
Wind Speed 7 mph (NE)    
Max Wind Speed 12 mph    
Max Gust Speed 14 mph    
T = Trace of Precipitation, MM = Missing Value Source: NWS Daily Summary

Daily Weather History Graph

Daily Weather History Graph

Search for Another Location

Airport:

Trip Planner

Search our weather history database for the weather conditions in past years. The results will help you decide how hot, cold, wet, or windy it might be!

Date:

Astronomy

Jan. 20, 2014 Rise Set
Actual Time 7:15 AM PST 4:49 PM PST
Civil Twilight 6:44 AM PST 5:20 PM PST
Nautical Twilight 6:10 AM PST 5:55 PM PST
Astronomical Twilight 5:36 AM PST 6:28 PM PST
Moon 9:36 PM PST (1/20) 9:11 AM PST (1/20)
Length of Visible Light 10h 35m
Length of Day
9h 33m
Waning Gibbous, 82% of the Moon is Illuminated
Jan 20
Waning Gibbous
Jan 23
Last Quarter
Jan 30
New
Feb 6
First Quarter
Feb 14
Full

Hourly Weather History & Observations

Time (PST) Temp. Windchill Dew Point Humidity Pressure Visibility Wind Dir Wind Speed Gust Speed Precip Events Conditions
12:52 AM 19.0 °F 11.1 °F 14.0 °F 81% 30.33 in - NE 5.8 mph - N/A   Unknown
1:52 AM 19.0 °F 9.0 °F 16.0 °F 88% 30.35 in - ENE 8.1 mph - N/A   Unknown
2:52 AM 19.0 °F 10.0 °F 16.0 °F 88% 30.37 in - NE 6.9 mph - N/A   Unknown
3:52 AM 17.1 °F 10.0 °F 14.0 °F 88% 30.39 in - South 4.6 mph - N/A   Unknown
4:52 AM 16.0 °F 7.4 °F 12.9 °F 88% 30.42 in - SSW 5.8 mph - N/A   Unknown
6:52 AM 15.1 °F 6.4 °F 12.0 °F 88% 30.47 in - SE 5.8 mph - N/A   Unknown
7:52 AM 17.1 °F 7.6 °F 14.0 °F 88% 30.48 in - South 6.9 mph - N/A   Unknown
8:52 AM 27.0 °F - 21.0 °F 78% 30.48 in - Calm Calm - N/A   Unknown
9:52 AM 34.0 °F - 21.0 °F 59% 30.50 in - Calm Calm - N/A   Unknown
10:52 AM 37.9 °F 33.5 °F 21.0 °F 51% 30.49 in - North 5.8 mph - N/A   Unknown
11:52 AM 41.0 °F 37.1 °F 21.9 °F 47% 30.47 in - NNW 5.8 mph - N/A   Unknown
12:52 PM 44.1 °F 39.0 °F 21.9 °F 42% 30.44 in - NNE 9.2 mph - N/A   Unknown
1:52 PM 46.9 °F - 21.0 °F 36% 30.43 in - NE 8.1 mph - N/A   Unknown
2:52 PM 48.0 °F - 21.0 °F 34% 30.43 in - NNE 6.9 mph - N/A   Unknown
3:52 PM 46.9 °F - 21.0 °F 36% 30.45 in - NNE 9.2 mph - N/A   Unknown
4:52 PM 39.0 °F 34.0 °F 21.0 °F 49% 30.47 in - NNE 6.9 mph - N/A   Unknown
5:52 PM 32.0 °F 25.6 °F 19.0 °F 59% 30.51 in - NE 6.9 mph - N/A   Unknown
6:52 PM 27.0 °F 17.3 °F 19.0 °F 72% 30.53 in - NE 10.4 mph - N/A   Unknown
7:52 PM 26.1 °F 16.8 °F 19.0 °F 75% 30.53 in - NE 9.2 mph - N/A   Unknown
8:52 PM 21.9 °F 11.7 °F 19.0 °F 89% 30.52 in - NNE 9.2 mph - N/A   Unknown
9:52 PM 21.0 °F 10.6 °F 19.0 °F 92% 30.53 in - NE 9.2 mph - N/A   Unknown
10:52 PM 19.9 °F 11.1 °F 17.1 °F 89% 30.53 in - ENE 6.9 mph - N/A   Unknown
11:52 PM 18.0 °F 9.8 °F 16.0 °F 92% 30.52 in - East 5.8 mph - N/A   Unknown